Location: Dötzum
(52.0808°N, 9.8063°E)
Time: 05:31:18
(UTC+00:00)

Cosmos 1656 Rocket - Pass Details

Date: 27 May 2022
Orbit: 796 x 845 km, 71.1° (Epoch: 26 June)

Event Time Altitude Azimuth Distance (km) Brightness Sun altitude
Rises 01:38:00 0° 329° (NNW) 3,317 7.2 -10.5°
Reaches altitude 10° 01:40:25 10° 330° (NNW) 2,381 6.4 -10.3°
Maximum altitude 01:45:52 89° 59° (ENE) 805 3.6 -9.9°
Drops below altitude 10° 01:51:18 10° 151° (SSE) 2,370 5.8 -9.4°
Sets 01:53:42 0° 151° (SSE) 3,300 6.5 -9.2°
